Location: Spaichingen
(48.0400°N, 8.4300°E)
Time: 23:27:31
(UTC+02:00)

Tiangong 2 - Pass Details

Date: 25 May 2019
Orbit: 376 x 388 km, 42.8° (Epoch: 24 June)

Event Time Altitude Azimuth Distance (km) Brightness Sun altitude
Rises 22:46:20 0° 262° (W) 2,234 5.4 -12.5°
Reaches altitude 10° 22:48:34 10° 249° (WSW) 1,381 4.1 -12.7°
Maximum altitude 22:51:14 26° 190° (S) 775 2.2 -13.0°
Enters shadow 22:51:54 24° 168° (SSE) 824 2.2 -13.1°
